COSMOS 2528

导读 | 星芒AI

COSMOS 2528 是俄罗斯于2019年发射的一颗军用卫星,属于“宇宙”卫星系列。该卫星被怀疑具备机动能力,可能用于监视或干扰其他卫星,引发国际关注。美国太空司令部将其列为潜在威胁,担忧其可能执行反卫星任务。COSMOS 2528 的行为提升了太空军事化风险,促使各国加强对太空活动的监测与规范。

基本信息
目录编号:
43657
目录名称:
COSMOS 2528
国际标识:
2018-082A
轨道中心:
EARTH
卫星名称:
COSMOS 2528
卫星全名:
--
卫星状态:
在轨 (已飞行2563 天)
发射日期:
2018-10-25 UTC
国别 :
俄罗斯(独联体) (CIS)
星等 :
--
轨道信息
数据来源 国际轨道数据 AOE轨道数据
星历时间 2025-10-31T06:25:42+0800
9小时前
查看轨道信息
2025-10-30T11:00:00+0800
1天前
查看轨道信息
半长轴 7283.423km 7283.423km
偏心率 0.000452 0.0004486
轨道倾角 67.148° 67.149°
近地点辐角 256.129° 254.384°
升交点赤经 274.947° 276.915°
平近点角 103.929° 355.999°
近地点 901.995km 902.02km
远地点 908.581km 908.556km
周期 103.101分钟 103.101分钟
每日圈数 13.966884 13.966884
详细信息
使用方式:
暂无
2D轨道图
3D轨道图
轨道高度分析图
轨道倾角分析图
轨道综合分析图
查看轨道综合分析图